This is the latest recevied weather packets stored in our database for station/object W9PEM-13. If no packets are shown the sender has not sent any weather packets the latest 1 day(s).
| Time | Temp. | Humidity | Pressure | Rain* | Wind** | Luminosity | Snow |
|---|---|---|---|---|---|---|---|
| 1778024320 | 12.22° C | 35% | 978.1 hPa | 0 mm | 2.24 m/s, 273° | 108 W/m² | - |
| 1778024013 | 12.22° C | 35% | 978.1 hPa | 0 mm | 2.24 m/s, 273° | 108 W/m² | - |
| 1778023748 | 12.22° C | 36% | 978 hPa | 0 mm | 1.34 m/s, 353° | 138 W/m² | - |
| 1778023413 | 12.22° C | 36% | 978 hPa | 0 mm | 1.34 m/s, 353° | 138 W/m² | - |
| 1778023137 | 12.22° C | 35% | 978 hPa | 0 mm | 1.34 m/s, 160° | 173 W/m² | - |
| 1778022813 | 12.22° C | 35% | 978 hPa | 0 mm | 1.34 m/s, 160° | 173 W/m² | - |
| 1778022533 | 12.78° C | 37% | 978 hPa | 0 mm | 1.79 m/s, 174° | 177 W/m² | - |
| 1778022213 | 12.78° C | 37% | 978 hPa | 0 mm | 1.79 m/s, 174° | 177 W/m² | - |
| 1778021938 | 12.78° C | 36% | 977.9 hPa | 0 mm | 1.34 m/s, 231° | 190 W/m² | - |
| 1778021613 | 12.78° C | 36% | 977.9 hPa | 0 mm | 1.34 m/s, 231° | 190 W/m² | - |
| 1778021233 | 12.78° C | 35% | 977.8 hPa | 0 mm | 1.34 m/s, 311° | 190 W/m² | - |
| 1778021013 | 12.78° C | 35% | 977.8 hPa | 0 mm | 1.34 m/s, 311° | 190 W/m² | - |
| 1778020499 | 13.33° C | 35% | 977.8 hPa | 0 mm | 1.79 m/s, 280° | 230 W/m² | - |
| 1778020413 | 13.33° C | 35% | 977.8 hPa | 0 mm | 1.79 m/s, 280° | 230 W/m² | - |
| 1778020082 | 13.89° C | 35% | 977.6 hPa | 0 mm | 2.24 m/s, 278° | 303 W/m² | - |
| 1778019813 | 13.89° C | 35% | 977.6 hPa | 0 mm | 2.24 m/s, 278° | 303 W/m² | - |
| 1778019403 | 13.33° C | 33% | 977.5 hPa | 0 mm | 2.68 m/s, 162° | 341 W/m² | - |
| 1778019324 | 13.33° C | 33% | 977.5 hPa | 0 mm | 2.68 m/s, 162° | 341 W/m² | - |
| 1778019213 | 13.33° C | 33% | 977.5 hPa | 0 mm | 2.68 m/s, 162° | 341 W/m² | - |
| 1778018654 | 13.33° C | 33% | 977.5 hPa | 0 mm | 2.24 m/s, 322° | 343 W/m² | - |
| 1778018613 | 13.33° C | 33% | 977.5 hPa | 0 mm | 2.24 m/s, 322° | 343 W/m² | - |
| 1778018138 | 13.33° C | 35% | 977.5 hPa | 0 mm | 3.13 m/s, 289° | 386 W/m² | - |
| 1778018013 | 13.33° C | 35% | 977.5 hPa | 0 mm | 3.13 m/s, 289° | 386 W/m² | - |
| 1778017618 | 13.33° C | 35% | 977.4 hPa | 0 mm | 2.68 m/s, 273° | 411 W/m² | - |
| 1778017413 | 13.33° C | 35% | 977.4 hPa | 0 mm | 2.68 m/s, 273° | 411 W/m² | - |
* Rain latest hour (hover to see other rain measurements)
** Current wind speed in m/s (hover to see current wind gust speed)